COSMOS 2251 DEB, 36622

Orbit data source: Space-Track

COSMOS 2251 DEB, 36622 is space debris in LEO originally from a launch on Wed, 16 Jun 1993 UTC launched from the Plesetsk Missile And Space Complex (PKMTR). The debris from Iridium 33, an American commercial communications satellite, has been tracked extensively since its accidental collision with the defunct Russian satellite Cosmos 2251 in 2009. This event, occurring at high speed in low Earth orbit (LEO), generated thousands of pieces of space debris, significantly increasing the risk of further collisions. The Iridium 33 debris cloud has impacted space traffic management and orbital debris mitigation strategies, making it a subject of ongoing study in space situational awareness.

Loading next visibility...
Identifier
36622, 1993-036BEL
Orbit
LEO
Country
Flag of CISCIS
Related business
Manufacturer
Unknown
Mission
Spacecraft
Bus & Motor
Unknown
Mass
Unknown
Launch date (UTC)
1993-06-16 (33 years ago)
Launch vehicle
Unknown
Launch site
Plesetsk Missile And Space Complex (PKMTR)
Object type
Payload
Rocket body
Debris
Shape & HBR
Unknown shape, 0.1 m
Radar Cross Section
Small (<0.1 m²)

Expand to show TLE details & history
Last TLE update: 2 days ago

TLE from 2 days ago
0 COSMOS 2251 DEB
1 36622U 93036BEL 26261.83776691  .00001663  00000-0  22634-3 0  9990
2 36622  74.0129 315.2366 0065573  18.0664 342.2819 14.78166337708865
Epoch: 2026-09-18T20:06Z
TLE epoch observation values (Epoch: 2026-09-18T20:06:23.061Z)
Latitude
0.00002°
Longitude
15.8856°
Altitude
593.993 km
Speed
7.587 km/s
True Right ascension
21h 00m 56s
True Declination
0° 00' 00"
Sunlit
Object was in full shadow at epoch
Visualization orbit readout
Latitude
Unknown
Longitude
Unknown
Altitude
Unknown
Speed
Unknown
Apparent Right ascension
Unknown
Apparent Declination
Unknown
Sunlit
N/A
Visualization observer readout
Local Sidereal Time
15:02:17
Azimuth
Unknown
Elevation
Unknown
Doppler factor
Unknown
Orbital elements
Apogee altitude
678.67 km
Perigee altitude
586.725 km
Semi-major axis
7,010.835 km
Eccentricity
0.00656
Inclination
74.0129°
RAAN
315.2366°
Arg. of periapsis
18.0664°
True anomaly
342.05142°
Mean anomaly
342.2819°
Eccentric anomaly
342.16684°
Mean motion
3.69733 °/min
Orbital period
97.37 mins
BSTAR
0.00022634

Documentation

Showing up to 5 results
|